Time,TemperatureF,DewpointF,PressureIn,WindDirection,WindDirectionDegrees,WindSpeedMPH,WindSpeedGustMPH,Humidity,HourlyPrecipIn,Conditions,Clouds,dailyrainin,SoftwareType,DateUTC
2014-10-21 00:04:00,46.4,39.7,30.02,WSW,248,0.7,1.1,77,0.00,,,0.00,WUHU216HW,2014-10-21 05:04:00,
2014-10-21 00:09:00,46.1,39.6,30.02,SW,225,0.0,1.1,78,0.00,,,0.00,WUHU216HW,2014-10-21 05:09:00,
2014-10-21 00:14:00,46.3,39.8,30.01,WSW,248,0.0,0.9,78,0.00,,,0.00,WUHU216HW,2014-10-21 05:14:00,
2014-10-21 00:19:00,46.4,40.3,30.01,WSW,248,1.1,1.1,79,0.00,,,0.00,WUHU216HW,2014-10-21 05:19:00,
2014-10-21 00:24:00,46.4,40.3,30.02,SW,225,0.9,1.1,79,0.00,,,0.00,WUHU216HW,2014-10-21 05:24:00,
2014-10-21 00:29:00,46.3,40.1,30.01,SW,225,0.9,1.1,79,0.00,,,0.00,WUHU216HW,2014-10-21 05:29:00,
2014-10-21 00:34:00,46.1,40.0,30.01,SW,225,0.4,1.1,79,0.00,,,0.00,WUHU216HW,2014-10-21 05:34:00,
2014-10-21 00:39:00,45.7,39.6,30.01,SW,225,0.0,1.1,79,0.00,,,0.00,WUHU216HW,2014-10-21 05:39:00,
2014-10-21 00:44:00,45.5,39.4,30.02,WSW,248,0.7,0.7,79,0.00,,,0.00,WUHU216HW,2014-10-21 05:44:00,
2014-10-21 00:49:00,45.9,40.1,30.01,WSW,248,0.0,0.7,80,0.00,,,0.00,WUHU216HW,2014-10-21 05:49:00,
2014-10-21 00:54:00,46.3,40.8,30.01,SW,225,1.1,1.1,81,0.00,,,0.00,WUHU216HW,2014-10-21 05:54:00,
2014-10-21 00:59:00,46.1,40.6,30.01,SW,225,0.4,1.1,81,0.00,,,0.00,WUHU216HW,2014-10-21 05:59:00,
2014-10-21 01:04:00,45.5,39.8,30.01,SW,225,0.0,0.9,80,0.00,,,0.00,WUHU216HW,2014-10-21 06:04:00,
2014-10-21 01:09:00,45.2,39.4,30.01,SW,225,0.0,0.4,80,0.00,,,0.00,WUHU216HW,2014-10-21 06:09:00,
2014-10-21 01:14:00,45.0,39.2,30.01,SW,225,0.0,0.0,80,0.00,,,0.00,WUHU216HW,2014-10-21 06:14:00,
2014-10-21 01:19:00,45.4,39.9,30.01,SW,225,0.0,0.0,81,0.00,,,0.00,WUHU216HW,2014-10-21 06:19:00,
2014-10-21 01:23:00,45.5,40.1,30.01,SW,225,0.0,0.0,81,0.00,,,0.00,WUHU216HW,2014-10-21 06:23:00,
2014-10-21 01:28:00,45.4,39.9,30.01,WSW,248,0.0,0.0,81,0.00,,,0.00,WUHU216HW,2014-10-21 06:28:00,
2014-10-21 01:33:00,45.0,39.5,30.02,WSW,248,0.0,0.0,81,0.00,,,0.00,WUHU216HW,2014-10-21 06:33:00,
2014-10-21 01:38:00,44.6,39.2,30.02,WSW,248,0.0,0.0,81,0.00,,,0.00,WUHU216HW,2014-10-21 06:38:00,
2014-10-21 01:43:00,44.1,38.6,30.02,WSW,248,0.0,0.0,81,0.00,,,0.00,WUHU216HW,2014-10-21 06:43:00,
2014-10-21 01:48:00,43.7,38.3,30.02,SW,225,0.0,0.0,81,0.00,,,0.00,WUHU216HW,2014-10-21 06:48:00,
2014-10-21 01:53:00,43.9,38.8,30.02,SW,225,0.0,0.0,82,0.00,,,0.00,WUHU216HW,2014-10-21 06:53:00,
2014-10-21 01:58:00,43.9,38.8,30.02,SW,225,0.0,0.0,82,0.00,,,0.00,WUHU216HW,2014-10-21 06:58:00,
2014-10-21 02:03:00,43.7,38.6,30.02,SW,225,0.0,0.0,82,0.00,,,0.00,WUHU216HW,2014-10-21 07:03:00,
2014-10-21 02:08:00,43.6,38.4,30.03,SW,225,0.0,0.0,82,0.00,,,0.00,WUHU216HW,2014-10-21 07:08:00,
2014-10-21 02:13:00,43.4,38.3,30.02,SW,225,0.0,0.0,82,0.00,,,0.00,WUHU216HW,2014-10-21 07:13:00,
2014-10-21 02:18:00,43.2,38.1,30.03,SW,225,0.0,0.0,82,0.00,,,0.00,WUHU216HW,2014-10-21 07:18:00,
2014-10-21 02:23:00,43.2,38.3,30.02,SW,225,0.0,0.0,83,0.00,,,0.00,WUHU216HW,2014-10-21 07:23:00,
2014-10-21 02:28:00,43.2,38.3,30.03,SW,225,0.0,0.0,83,0.00,,,0.00,WUHU216HW,2014-10-21 07:28:00,
2014-10-21 02:33:00,43.2,38.3,30.03,WSW,248,0.0,0.0,83,0.00,,,0.00,WUHU216HW,2014-10-21 07:33:00,
2014-10-21 02:38:00,43.4,38.9,30.03,NNW,338,0.0,0.0,84,0.00,,,0.00,WUHU216HW,2014-10-21 07:38:00,
2014-10-21 02:43:00,43.6,39.1,30.03,North,0,0.0,0.2,84,0.00,,,0.00,WUHU216HW,2014-10-21 07:43:00,
2014-10-21 02:48:00,43.6,39.1,30.03,North,0,0.0,1.1,84,0.00,,,0.00,WUHU216HW,2014-10-21 07:48:00,
2014-10-21 02:53:00,43.6,39.1,30.03,North,0,0.0,1.1,84,0.00,,,0.00,WUHU216HW,2014-10-21 07:53:00,
2014-10-21 02:58:00,43.4,38.9,30.03,North,0,0.0,0.0,84,0.00,,,0.00,WUHU216HW,2014-10-21 07:58:00,
2014-10-21 03:03:00,43.0,38.5,30.03,North,0,0.0,0.0,84,0.00,,,0.00,WUHU216HW,2014-10-21 08:03:00,
2014-10-21 03:08:00,43.0,38.5,30.03,North,0,0.0,0.0,84,0.00,,,0.00,WUHU216HW,2014-10-21 08:08:00,
2014-10-21 03:13:00,42.8,38.4,30.03,North,0,0.0,0.0,84,0.00,,,0.00,WUHU216HW,2014-10-21 08:13:00,
2014-10-21 03:18:00,42.8,38.4,30.03,North,0,0.0,0.0,84,0.00,,,0.00,WUHU216HW,2014-10-21 08:18:00,
2014-10-21 03:23:00,42.7,38.2,30.03,North,0,0.0,0.0,84,0.00,,,0.00,WUHU216HW,2014-10-21 08:23:00,
2014-10-21 03:28:00,42.3,37.8,30.03,North,0,0.0,0.0,84,0.00,,,0.00,WUHU216HW,2014-10-21 08:28:00,
2014-10-21 03:33:00,42.1,37.6,30.03,North,0,0.0,0.0,84,0.00,,,0.00,WUHU216HW,2014-10-21 08:33:00,
2014-10-21 03:38:00,42.1,37.6,30.03,North,0,0.0,0.0,84,0.00,,,0.00,WUHU216HW,2014-10-21 08:38:00,
2014-10-21 03:43:00,42.3,38.1,30.03,North,0,0.4,0.9,85,0.00,,,0.00,WUHU216HW,2014-10-21 08:43:00,
2014-10-21 03:48:00,42.7,38.4,30.03,North,0,0.0,0.9,85,0.00,,,0.00,WUHU216HW,2014-10-21 08:48:00,
2014-10-21 03:53:00,42.5,38.3,30.03,North,0,0.0,0.2,85,0.00,,,0.00,WUHU216HW,2014-10-21 08:53:00,
2014-10-21 03:58:00,42.5,38.3,30.03,North,0,0.0,0.0,85,0.00,,,0.00,WUHU216HW,2014-10-21 08:58:00,
2014-10-21 04:03:00,42.1,37.9,30.03,North,0,0.0,0.0,85,0.00,,,0.00,WUHU216HW,2014-10-21 09:03:00,
2014-10-21 04:08:00,41.9,37.7,30.03,North,0,0.0,0.0,85,0.00,,,0.00,WUHU216HW,2014-10-21 09:08:00,
2014-10-21 04:13:00,41.8,37.5,30.03,North,0,0.0,0.0,85,0.00,,,0.00,WUHU216HW,2014-10-21 09:13:00,
2014-10-21 04:18:00,41.8,37.3,30.03,North,0,0.0,0.0,84,0.00,,,0.00,WUHU216HW,2014-10-21 09:18:00,
2014-10-21 04:23:00,41.4,36.9,30.03,North,0,0.0,0.0,84,0.00,,,0.00,WUHU216HW,2014-10-21 09:23:00,
2014-10-21 04:28:00,41.6,37.1,30.03,North,0,0.0,0.0,84,0.00,,,0.00,WUHU216HW,2014-10-21 09:28:00,
2014-10-21 04:33:00,41.6,37.4,30.03,North,0,0.0,0.0,85,0.00,,,0.00,WUHU216HW,2014-10-21 09:33:00,
2014-10-21 04:38:00,41.6,37.4,30.04,North,0,0.0,0.0,85,0.00,,,0.00,WUHU216HW,2014-10-21 09:38:00,
2014-10-21 04:43:00,41.6,37.4,30.04,North,0,0.0,0.0,85,0.00,,,0.00,WUHU216HW,2014-10-21 09:43:00,
2014-10-21 04:48:00,41.4,37.2,30.03,North,0,0.0,0.0,85,0.00,,,0.00,WUHU216HW,2014-10-21 09:48:00,
2014-10-21 04:53:00,41.2,37.0,30.04,North,0,0.0,0.0,85,0.00,,,0.00,WUHU216HW,2014-10-21 09:53:00,
2014-10-21 04:58:00,41.2,37.0,30.04,North,0,0.0,0.0,85,0.00,,,0.00,WUHU216HW,2014-10-21 09:58:00,
2014-10-21 05:03:00,40.9,36.6,30.04,North,0,0.0,0.0,85,0.00,,,0.00,WUHU216HW,2014-10-21 10:03:00,
2014-10-21 05:08:00,40.9,36.6,30.04,North,0,0.0,0.0,85,0.00,,,0.00,WUHU216HW,2014-10-21 10:08:00,
2014-10-21 05:13:00,41.0,36.8,30.04,North,0,0.0,0.0,85,0.00,,,0.00,WUHU216HW,2014-10-21 10:13:00,
2014-10-21 05:18:00,41.2,37.0,30.04,North,0,0.0,0.0,85,0.00,,,0.00,WUHU216HW,2014-10-21 10:18:00,
2014-10-21 05:23:00,41.0,36.8,30.04,North,0,0.0,0.0,85,0.00,,,0.00,WUHU216HW,2014-10-21 10:23:00,
2014-10-21 05:28:00,40.9,36.6,30.05,North,0,0.0,0.0,85,0.00,,,0.00,WUHU216HW,2014-10-21 10:28:00,
2014-10-21 05:33:00,40.7,36.5,30.05,North,0,0.0,0.0,85,0.00,,,0.00,WUHU216HW,2014-10-21 10:33:00,
2014-10-21 05:38:00,40.7,36.5,30.05,North,0,0.0,0.0,85,0.00,,,0.00,WUHU216HW,2014-10-21 10:38:00,
2014-10-21 05:43:00,40.7,36.5,30.05,North,0,0.0,0.0,85,0.00,,,0.00,WUHU216HW,2014-10-21 10:43:00,
2014-10-21 05:48:00,40.7,36.5,30.05,North,0,0.0,0.0,85,0.00,,,0.00,WUHU216HW,2014-10-21 10:48:00,
2014-10-21 05:53:00,40.5,36.3,30.05,North,0,0.0,0.0,85,0.00,,,0.00,WUHU216HW,2014-10-21 10:53:00,
2014-10-21 05:58:00,40.5,36.6,30.05,North,0,0.0,0.0,86,0.00,,,0.00,WUHU216HW,2014-10-21 10:58:00,
2014-10-21 06:03:00,40.5,36.6,30.05,North,0,0.0,0.0,86,0.00,,,0.00,WUHU216HW,2014-10-21 11:03:00,
2014-10-21 06:08:00,40.7,36.8,30.05,SSW,203,0.0,1.6,86,0.00,,,0.00,WUHU216HW,2014-10-21 11:08:00,
2014-10-21 06:13:00,40.7,36.8,30.05,SW,225,0.0,1.6,86,0.00,,,0.00,WUHU216HW,2014-10-21 11:13:00,
2014-10-21 06:18:00,40.7,36.8,30.05,SSW,203,0.4,1.6,86,0.00,,,0.00,WUHU216HW,2014-10-21 11:18:00,
2014-10-21 06:23:00,40.7,36.8,30.05,SW,225,0.7,1.6,86,0.00,,,0.00,WUHU216HW,2014-10-21 11:23:00,
2014-10-21 06:28:00,40.7,36.8,30.06,SW,225,0.4,0.9,86,0.00,,,0.00,WUHU216HW,2014-10-21 11:28:00,
2014-10-21 06:33:00,40.7,36.8,30.06,SW,225,0.0,0.9,86,0.00,,,0.00,WUHU216HW,2014-10-21 11:33:00,
2014-10-21 06:38:00,40.7,36.8,30.06,SW,225,0.0,0.4,86,0.00,,,0.00,WUHU216HW,2014-10-21 11:38:00,
2014-10-21 06:43:00,40.3,36.5,30.06,SW,225,0.0,0.0,86,0.00,,,0.00,WUHU216HW,2014-10-21 11:43:00,
2014-10-21 06:48:00,40.3,36.5,30.05,SW,225,0.0,0.0,86,0.00,,,0.00,WUHU216HW,2014-10-21 11:48:00,
2014-10-21 06:53:00,40.1,36.3,30.05,SW,225,0.0,0.0,86,0.00,,,0.00,WUHU216HW,2014-10-21 11:53:00,
2014-10-21 06:58:00,40.1,36.3,30.05,WSW,248,0.7,1.1,86,0.00,,,0.00,WUHU216HW,2014-10-21 11:58:00,
2014-10-21 07:03:00,40.1,36.3,30.06,WSW,248,0.0,1.1,86,0.00,,,0.00,WUHU216HW,2014-10-21 12:03:00,
2014-10-21 07:08:00,40.3,36.5,30.06,West,270,0.0,0.7,86,0.00,,,0.00,WUHU216HW,2014-10-21 12:08:00,
2014-10-21 07:13:00,40.3,36.7,30.06,NW,315,0.0,0.0,87,0.00,,,0.00,WUHU216HW,2014-10-21 12:13:00,
2014-10-21 07:18:00,40.3,36.7,30.06,NW,315,0.0,0.0,87,0.00,,,0.00,WUHU216HW,2014-10-21 12:18:00,
2014-10-21 07:23:00,40.0,36.4,30.06,NW,315,0.0,0.0,87,0.00,,,0.00,WUHU216HW,2014-10-21 12:23:00,